Las Vegas, NM

5:13 AM MDT on March 25, 2017 (GMT -0600)
Las Vegas Municipal

Weather History for KLVS - July, 2013

Change the Weather History Date:

Monday, July 22, 2013

  Actual Average Record
Temperature  
Mean Temperature 73 °F -  
Max Temperature 88 °F 81 °F 93 °F (2016)
Min Temperature 59 °F 53 °F 43 °F (1961)
Cooling Degree Days 8    
Growing Degree Days 23 (Base 50)    
Moisture  
Dew Point 46 °F    
Average Humidity 44    
Maximum Humidity 78    
Minimum Humidity 19    
Precipitation  
Precipitation 0.00 in - - ()
Sea Level Pressure  
Sea Level Pressure 29.85 in    
Wind  
Wind Speed 8 mph (South)    
Max Wind Speed 18 mph    
Max Gust Speed 24 mph    
Visibility 10 miles    
Events      
Averages and records for this station are not official NWS values.
T = Trace of Precipitation, MM = Missing Value Source: NWS Daily Summary

Daily Weather History Graph

Daily Weather History Graph

Search for Another Location

Airport or City:

Trip Planner

Search our weather history database for the weather conditions in past years. The results will help you decide how hot, cold, wet, or windy it might be!

Date:

Astronomy

Jul. 22, 2013 Rise Set
Actual Time 6:01 AM MDT 8:12 PM MDT
Civil Twilight 5:32 AM MDT 8:41 PM MDT
Nautical Twilight 4:57 AM MDT 9:16 PM MDT
Astronomical Twilight 4:19 AM MDT 9:54 PM MDT
Moon 8:03 PM MDT (7/22) 5:58 AM MDT (7/22)
Length of Visible Light 15h 08m
Length of Day
14h 10m
Full, 100% of the Moon is Illuminated
Jul 22
Full
Jul 22
Full
Jul 29
Last Quarter
Aug 6
New
Aug 14
First Quarter

Hourly Weather History & Observations

Time (MDT) Temp. Dew Point Humidity Pressure Visibility Wind Dir Wind Speed Gust Speed Precip Events Conditions
12:53 AM 62.1 °F 54.0 °F 75% 29.88 in 10.0 mi South 11.5 mph - N/A   Clear
1:53 AM 61.0 °F 53.1 °F 75% 29.88 in 10.0 mi South 11.5 mph - N/A   Clear
2:53 AM 62.1 °F 53.1 °F 72% 29.85 in 10.0 mi South 10.4 mph - N/A   Clear
3:53 AM 59.0 °F 52.0 °F 78% 29.86 in 10.0 mi WSW 3.5 mph - N/A   Clear
4:53 AM 60.1 °F 50.0 °F 69% 29.86 in 10.0 mi NNW 4.6 mph - N/A   Clear
5:53 AM 60.1 °F 48.0 °F 64% 29.86 in 10.0 mi NNW 3.5 mph - N/A   Clear
6:53 AM 59.0 °F 50.0 °F 72% 29.88 in 10.0 mi NE 3.5 mph - N/A   Clear
7:53 AM 64.0 °F 48.0 °F 56% 29.89 in 10.0 mi NNW 3.5 mph - N/A   Clear
8:53 AM 70.0 °F 48.0 °F 46% 29.88 in 10.0 mi North 4.6 mph - N/A   Clear
9:53 AM 73.9 °F 48.9 °F 41% 29.87 in 10.0 mi Calm Calm - N/A   Clear
10:53 AM 77.0 °F 48.0 °F 36% 29.86 in 10.0 mi Calm Calm - N/A   Clear
11:53 AM 80.1 °F 46.9 °F 31% 29.85 in 10.0 mi SW 4.6 mph - N/A   Clear
12:53 PM 82.0 °F 45.0 °F 27% 29.84 in 10.0 mi SSW 8.1 mph - N/A   Clear
1:53 PM 84.0 °F 43.0 °F 24% 29.83 in 10.0 mi SSW 6.9 mph - N/A   Clear
2:53 PM 87.1 °F 41.0 °F 20% 29.79 in 10.0 mi Variable 5.8 mph - N/A   Clear
3:53 PM 86.0 °F 39.9 °F 20% 29.79 in 10.0 mi SSE 9.2 mph - N/A   Clear
4:53 PM 87.1 °F 39.9 °F 19% 29.78 in 10.0 mi ESE 16.1 mph - N/A   Clear
5:53 PM 84.9 °F 39.9 °F 20% 29.79 in 10.0 mi SE 18.4 mph 24.2 mph N/A   Clear
6:53 PM 82.0 °F 37.0 °F 20% 29.81 in 10.0 mi SE 12.7 mph - N/A   Clear
7:53 PM 77.0 °F 39.9 °F 26% 29.82 in 10.0 mi SSE 11.5 mph - N/A   Clear
8:53 PM 72.0 °F 42.1 °F 34% 29.84 in 10.0 mi SE 12.7 mph - N/A   Clear
9:53 PM 70.0 °F 43.0 °F 38% 29.86 in 10.0 mi SSE 13.8 mph - N/A   Clear
10:53 PM 66.9 °F 45.0 °F 45% 29.88 in 10.0 mi South 9.2 mph - N/A   Clear
11:53 PM 64.9 °F 46.9 °F 52% 29.88 in 10.0 mi SW 8.1 mph - N/A   Clear